W4RJF Weather Reports


Display with metric or nautical units.
time (UTC)temp
F
wind
direction
speed
MPH
gust
MPH
rain 1hr
in
rain 24hr
in
rain mn
in
humidity
%
barometer
mb
20260905071524 74 194 0.0 0.0 0.00 0.00 0.00 85 1013.0
20260905071011 74 194 0.0 0.0 0.00 0.00 0.00 85 1013.1
20260905070513 74 194 0.0 0.0 0.00 0.00 0.00 85 1013.3
20260905070029 74 194 0.0 0.0 0.00 0.00 0.00 85 1013.3
20260905065514 75 194 0.0 0.0 0.00 0.00 0.00 84 1013.3
20260905065014 75 194 0.0 0.0 0.00 0.00 0.00 84 1013.4
20260905064506 75 194 0.0 0.0 0.00 0.00 0.00 85 1013.5
20260905064005 74 194 0.0 0.0 0.00 0.00 0.00 84 1013.6
20260905063502 74 194 0.0 0.0 0.00 0.00 0.00 84 1013.5
20260905063012 75 194 0.0 0.0 0.00 0.00 0.00 84 1013.6
20260905062506 75 194 0.0 0.0 0.00 0.00 0.00 85 1013.8
20260905062007 75 194 0.0 0.0 0.00 0.00 0.00 84 1013.9
20260905061520 75 194 0.0 0.0 0.00 0.00 0.00 83 1013.9
20260905061007 75 194 0.0 0.0 0.00 0.00 0.00 83 1014.0
20260905060511 75 194 0.0 0.0 0.00 0.00 0.00 83 1014.2
20260905060028 75 194 0.0 0.0 0.00 0.00 0.00 82 1014.2
20260905055512 75 194 0.0 0.0 0.00 0.00 0.00 82 1014.3
20260905055016 75 194 0.0 0.0 0.00 0.00 0.00 83 1014.2
20260905054530 75 194 0.0 0.0 0.00 0.00 0.00 82 1014.1
20260905054014 75 194 0.0 0.0 0.00 0.00 0.00 83 1014.2
20260905053516 75 194 0.0 0.0 0.00 0.00 0.00 83 1014.2
20260905053010 75 194 0.0 0.0 0.00 0.00 0.00 83 1014.3
20260905052505 75 194 0.0 0.0 0.00 0.00 0.00 83 1014.3
20260905052018 75 194 0.0 0.0 0.00 0.00 0.00 82 1014.4
20260905051526 75 194 0.0 0.0 0.00 0.00 0.00 82 1014.7
20260905051007 75 194 0.0 0.0 0.00 0.00 0.00 82 1014.7
20260905050508 76 194 0.0 0.0 0.00 0.00 0.00 81 1014.6
20260905050023 76 194 0.0 0.0 0.00 0.00 0.00 81 1014.7
20260905045513 76 194 0.0 0.0 0.00 0.00 0.00 80 1014.7
20260905045013 76 194 0.0 0.0 0.00 0.00 0.00 80 1014.7
20260905044528 76 194 0.0 0.0 0.00 0.00 0.00 81 1014.7
20260905044018 76 194 0.0 0.0 0.00 0.00 0.00 81 1014.7
20260905043516 76 194 0.0 0.0 0.00 0.00 0.00 80 1014.9
20260905043030 76 194 0.0 0.0 0.00 0.00 0.00 80 1015.0
20260905042514 76 194 0.0 0.0 0.00 0.00 0.00 80 1015.1
20260905042005 76 194 0.0 0.0 0.00 0.00 0.00 80 1015.2
20260905041517 76 194 0.0 2.0 0.00 0.00 0.00 79 1015.2
20260905041008 76 194 0.0 2.0 0.00 0.00 0.00 79 1015.2
20260905040507 76 194 0.0 2.0 0.00 0.00 0.00 79 1015.4
20260905040023 76 194 0.0 2.0 0.00 0.00 0.00 79 1015.4
20260905035508 77 197 0.0 2.0 0.00 0.00 0.00 79 1015.6
20260905035009 77 197 0.0 2.0 0.00 0.00 0.00 79 1015.6
20260905034529 77 197 0.0 2.0 0.00 0.00 0.00 79 1015.5
20260905034011 77 197 0.0 2.0 0.00 0.00 0.00 79 1015.4
20260905033513 77 194 1.0 2.0 0.00 0.00 0.00 79 1015.3
20260905033028 77 200 0.0 2.0 0.00 0.00 0.00 79 1015.5
20260905032516 77 189 0.0 3.0 0.00 0.00 0.00 79 1015.5
20260905032018 77 197 2.0 3.0 0.00 0.00 0.00 79 1015.3
20260905031536 78 200 0.0 2.0 0.00 0.00 0.00 79 1015.4
20260905031005 78 198 1.0 2.0 0.00 0.00 0.00 79 1015.6
20260905030508 78 202 0.0 3.0 0.00 0.00 0.00 78 1015.7
20260905030026 78 195 0.0 3.0 0.00 0.00 0.00 78 1015.9
20260905025517 78 178 0.0 2.0 0.00 0.00 0.00 78 1015.7
20260905025012 78 202 0.0 2.0 0.00 0.00 0.00 78 1015.7
20260905024526 78 194 0.0 2.0 0.00 0.00 0.00 77 1015.7
20260905024013 78 194 0.0 3.0 0.00 0.00 0.00 77 1015.8
20260905023513 79 173 0.0 3.0 0.00 0.00 0.00 76 1015.6
20260905023031 79 174 0.0 2.0 0.00 0.00 0.00 76 1015.7
20260905022515 80 97 0.0 2.0 0.00 0.00 0.00 75 1015.8
20260905022015 80 98 0.0 7.0 0.00 0.00 0.00 73 1016.2
20260905021531 82 99 1.0 7.0 0.00 0.00 0.00 72 1016.0
20260905021017 85 111 2.0 6.0 0.00 0.00 0.00 70 1015.9
20260905020516 86 70 2.0 5.0 0.00 0.00 0.00 73 1015.7
20260905020004 86 89 0.0 1.0 0.00 0.00 0.00 73 1015.1
20260905015504 86 202 0.0 0.0 0.00 0.00 0.00 73 1014.4
20260905015003 86 202 0.0 0.0 0.00 0.00 0.00 73 1014.1
20260905014507 86 202 0.0 0.0 0.00 0.00 0.00 73 1014.1
20260905014002 86 202 0.0 0.0 0.00 0.00 0.00 73 1014.4
20260905013503 86 202 0.0 0.0 0.00 0.00 0.00 73 1014.5
20260905013004 86 202 0.0 0.0 0.00 0.00 0.00 73 1014.8
20260905012503 86 202 0.0 0.0 0.00 0.00 0.00 73 1015.1
20260905012002 87 202 0.0 0.0 0.00 0.00 0.00 72 1014.9
20260905011505 86 202 0.0 0.0 0.00 0.00 0.00 71 1014.7
20260905011004 87 202 0.0 0.0 0.00 0.00 0.00 71 1014.4
20260905010506 87 202 0.0 0.0 0.00 0.00 0.00 71 1014.1
20260905010004 87 202 0.0 1.0 0.00 0.00 0.00 71 1013.8
20260905005503 87 202 0.0 1.0 0.00 0.00 0.00 70 1013.4
20260905005004 87 200 0.0 2.0 0.00 0.00 0.00 70 1013.2
20260905004507 87 200 0.0 1.0 0.00 0.00 0.00 69 1012.9
20260905004002 87 200 0.0 2.0 0.00 0.00 0.00 69 1012.8
20260905003502 88 200 0.0 2.0 0.00 0.00 0.00 69 1012.7
20260905003004 88 210 0.0 2.0 0.00 0.00 0.00 69 1012.9
20260905002504 88 211 0.0 0.0 0.00 0.00 0.00 68 1013.0
20260905002003 88 211 0.0 0.0 0.00 0.00 0.00 68 1013.0
20260905001505 88 211 0.0 1.0 0.00 0.00 0.00 68 1013.1
20260905001004 88 204 0.0 1.0 0.00 0.00 0.00 68 1013.1
20260905000504 88 203 0.0 2.0 0.00 0.00 0.00 68 1013.1
20260905000011 89 197 0.0 2.0 0.00 0.00 0.00 67 1013.2
20260904235503 89 210 0.0 0.0 0.00 0.00 0.00 67 1013.3
20260904235005 89 210 0.0 0.0 0.00 0.00 0.00 67 1013.3
20260904234510 89 210 0.0 2.0 0.00 0.00 0.00 67 1013.4
20260904234003 89 210 0.0 2.0 0.00 0.00 0.00 66 1013.2
20260904233505 90 210 0.0 2.0 0.00 0.00 0.00 65 1013.4
20260904233007 90 223 0.0 2.0 0.00 0.00 0.00 65 1013.3
20260904232504 90 224 0.0 2.0 0.00 0.00 0.00 65 1013.3
20260904232003 90 198 0.0 2.0 0.00 0.00 0.00 64 1013.4
20260904231505 90 215 0.0 2.0 0.00 0.00 0.00 64 1013.2
20260904231003 90 211 0.0 1.0 0.00 0.00 0.00 64 1013.3
20260904230504 91 199 0.0 2.0 0.00 0.00 0.00 64 1013.1
20260904230008 91 199 0.0 2.0 0.00 0.00 0.00 62 1012.8
20260904225504 92 215 0.0 2.0 0.00 0.00 0.00 62 1012.8
20260904225004 92 227 0.0 2.0 0.00 0.00 0.00 62 1012.8
20260904224509 92 197 0.0 2.0 0.00 0.00 0.00 61 1013.0
20260904224006 93 215 0.0 4.0 0.00 0.00 0.00 60 1013.1
20260904223503 93 232 0.0 4.0 0.00 0.00 0.00 60 1012.9
20260904223010 93 245 0.0 2.0 0.00 0.00 0.00 59 1012.9
20260904222503 93 212 0.0 2.0 0.00 0.00 0.00 58 1012.9
20260904222003 93 217 0.0 2.0 0.00 0.00 0.00 57 1012.8
20260904221509 94 234 1.0 4.0 0.00 0.00 0.00 57 1013.0
20260904221005 94 205 0.0 4.0 0.00 0.00 0.00 56 1013.0
20260904220502 94 265 1.0 2.0 0.00 0.00 0.00 58 1013.1
20260904220009 94 237 1.0 3.0 0.00 0.00 0.00 59 1013.2
20260904215502 94 207 1.0 4.0 0.00 0.00 0.00 58 1013.1
20260904215001 94 194 2.0 4.0 0.00 0.00 0.00 59 1013.2
20260904214517 94 5 0.0 3.0 0.00 0.00 0.00 58 1013.3
20260904214009 94 225 1.0 3.0 0.00 0.00 0.00 57 1013.3
20260904213506 94 217 0.0 3.0 0.00 0.00 0.00 58 1013.2
20260904213011 94 230 0.0 5.0 0.00 0.00 0.00 57 1013.1
20260904212506 94 271 0.0 5.0 0.00 0.00 0.00 57 1013.0
20260904212008 94 184 1.0 4.0 0.00 0.00 0.00 57 1013.2
20260904211514 94 255 1.0 3.0 0.00 0.00 0.00 57 1013.0
20260904211005 94 253 1.0 3.0 0.00 0.00 0.00 56 1012.9
20260904210505 94 209 1.0 4.0 0.00 0.00 0.00 57 1012.9
20260904210010 94 244 0.0 5.0 0.00 0.00 0.00 56 1012.9
20260904205506 95 185 2.0 5.0 0.00 0.00 0.00 56 1012.9
20260904205002 95 191 1.0 4.0 0.00 0.00 0.00 56 1012.9
20260904204510 94 195 2.0 4.0 0.00 0.00 0.00 57 1012.7
20260904204005 94 238 1.0 5.0 0.00 0.00 0.00 56 1012.8
20260904203507 95 209 1.0 5.0 0.00 0.00 0.00 56 1012.9
20260904203010 95 187 1.0 3.0 0.00 0.00 0.00 58 1013.0
20260904202506 94 215 0.0 5.0 0.00 0.00 0.00 57 1013.3
20260904202012 95 305 1.0 5.0 0.00 0.00 0.00 57 1013.4
20260904201512 94 235 0.0 2.0 0.00 0.00 0.00 60 1013.5
20260904201007 95 200 1.0 2.0 0.00 0.00 0.00 57 1013.6
20260904200508 95 209 0.0 2.0 0.00 0.00 0.00 57 1013.5
20260904200023 94 229 0.0 4.0 0.00 0.00 0.00 59 1013.6
20260904195506 94 203 2.0 4.0 0.00 0.00 0.00 59 1013.8
20260904195005 95 194 2.0 3.0 0.00 0.00 0.00 58 1013.9
20260904194516 94 236 0.0 3.0 0.00 0.00 0.00 57 1013.9
20260904194007 95 206 2.0 3.0 0.00 0.00 0.00 54 1013.9
20260904193503 96 237 1.0 5.0 0.00 0.00 0.00 56 1014.0
20260904193014 96 292 3.0 5.0 0.00 0.00 0.00 57 1014.0
20260904192509 95 210 0.0 3.0 0.00 0.00 0.00 56 1014.2
20260904192005 95 221 1.0 4.0 0.00 0.00 0.00 58 1014.4
20260904191519 95 260 1.0 5.0 0.00 0.00 0.00 56 1014.3
20260904191008 96 200 1.0 5.0 0.00 0.00 0.00 55 1014.4
20260904190511 96 289 1.0 3.0 0.00 0.00 0.00 55 1014.4
20260904190013 97 287 1.0 2.0 0.00 0.00 0.00 54 1014.5
20260904185507 97 198 1.0 2.0 0.00 0.00 0.00 56 1014.6
20260904185005 96 231 0.0 5.0 0.00 0.00 0.00 55 1014.6
20260904184521 97 192 2.0 5.0 0.00 0.00 0.00 53 1014.6
20260904184007 97 232 0.0 4.0 0.00 0.00 0.00 54 1014.8
20260904183507 97 193 1.0 3.0 0.00 0.00 0.00 53 1015.1
20260904183009 98 198 0.0 3.0 0.00 0.00 0.00 51 1015.1
20260904182506 97 272 0.0 3.0 0.00 0.00 0.00 52 1015.0
20260904182008 96 238 0.0 3.0 0.00 0.00 0.00 54 1015.0
20260904181514 96 194 0.0 2.0 0.00 0.00 0.00 56 1015.1
20260904181007 95 285 0.0 2.0 0.00 0.00 0.00 57 1015.2
20260904180509 95 205 1.0 3.0 0.00 0.00 0.00 57 1015.3
20260904180018 95 190 1.0 3.0 0.00 0.00 0.00 58 1015.3
20260904175509 94 269 0.0 2.0 0.00 0.00 0.00 59 1015.4
20260904175009 94 255 0.0 2.0 0.00 0.00 0.00 60 1015.4
20260904174524 93 5 1.0 4.0 0.00 0.00 0.00 59 1015.4
20260904174009 93 272 1.0 4.0 0.00 0.00 0.00 61 1015.5
20260904173505 93 228 1.0 4.0 0.00 0.00 0.00 60 1015.6
20260904173019 94 296 0.0 2.0 0.00 0.00 0.00 60 1015.7
20260904172508 93 282 0.0 2.0 0.00 0.00 0.00 60 1015.8
20260904172008 93 190 1.0 2.0 0.00 0.00 0.00 59 1015.8
20260904171511 92 276 0.0 2.0 0.00 0.00 0.00 61 1015.9
20260904171010 92 239 0.0 5.0 0.00 0.00 0.00 60 1015.9
20260904170507 93 209 1.0 5.0 0.00 0.00 0.00 62 1015.9
20260904170019 92 173 1.0 5.0 0.00 0.00 0.00 63 1016.0
20260904165512 92 199 1.0 3.0 0.00 0.00 0.00 63 1016.1
20260904165011 92 217 1.0 2.0 0.00 0.00 0.00 64 1016.1
20260904164520 91 196 0.0 2.0 0.00 0.00 0.00 63 1016.2
20260904164008 91 316 1.0 2.0 0.00 0.00 0.00 64 1016.2
20260904163508 91 296 0.0 3.0 0.00 0.00 0.00 64 1016.3
20260904163023 91 217 1.0 3.0 0.00 0.00 0.00 65 1016.4
20260904162512 90 200 1.0 3.0 0.00 0.00 0.00 65 1016.4
20260904162007 90 245 0.0 2.0 0.00 0.00 0.00 66 1016.4
20260904161522 90 290 0.0 2.0 0.00 0.00 0.00 66 1016.5
20260904161013 90 220 1.0 3.0 0.00 0.00 0.00 67 1016.5
20260904160508 90 221 1.0 3.0 0.00 0.00 0.00 66 1016.5
20260904160016 90 294 1.0 3.0 0.00 0.00 0.00 66 1016.6
20260904155509 90 22 1.0 2.0 0.00 0.00 0.00 66 1016.5
20260904155009 89 254 0.0 2.0 0.00 0.00 0.00 69 1016.7
20260904154526 89 10 0.0 2.0 0.00 0.00 0.00 68 1016.6
20260904154011 89 204 0.0 2.0 0.00 0.00 0.00 67 1016.7
20260904153512 89 190 0.0 2.0 0.00 0.00 0.00 68 1016.7
20260904153024 89 338 0.0 3.0 0.00 0.00 0.00 70 1016.7
20260904152512 88 250 1.0 3.0 0.00 0.00 0.00 70 1016.7
20260904152011 88 198 0.0 2.0 0.00 0.00 0.00 71 1016.9
20260904151525 88 195 1.0 2.0 0.00 0.00 0.00 71 1016.8
20260904151014 88 229 0.0 4.0 0.00 0.00 0.00 70 1016.9
20260904150511 87 314 0.0 4.0 0.00 0.00 0.00 71 1017.0
20260904150025 87 310 0.0 3.0 0.00 0.00 0.00 72 1017.0
20260904145513 86 352 1.0 3.0 0.00 0.00 0.00 72 1016.9
20260904145007 86 222 1.0 2.0 0.00 0.00 0.00 73 1016.7
20260904144528 86 244 0.0 2.0 0.00 0.00 0.00 74 1016.8
20260904144010 85 229 0.0 2.0 0.00 0.00 0.00 75 1016.8
20260904143512 85 333 0.0 2.0 0.00 0.00 0.00 75 1017.0
20260904143024 85 203 0.0 3.0 0.00 0.00 0.00 75 1016.8
20260904142514 85 335 0.0 3.0 0.00 0.00 0.00 75 1016.9
20260904142014 85 28 0.0 2.0 0.00 0.00 0.00 75 1016.9
20260904141526 84 209 0.0 2.0 0.00 0.00 0.00 76 1017.0
20260904141012 84 215 0.0 2.0 0.00 0.00 0.00 77 1017.0
20260904140513 84 113 0.0 2.0 0.00 0.00 0.00 78 1016.9
20260904140024 84 64 0.0 3.0 0.00 0.00 0.00 78 1017.0
20260904135510 83 216 0.0 3.0 0.00 0.00 0.00 78 1017.1
20260904135013 83 207 0.0 2.0 0.00 0.00 0.00 78 1017.0
20260904134515 83 227 0.0 3.0 0.00 0.00 0.00 79 1017.0
20260904134007 83 207 1.0 3.0 0.00 0.00 0.00 80 1017.0
20260904133510 83 242 0.0 2.0 0.00 0.00 0.00 81 1016.9
20260904133027 82 214 0.0 2.0 0.00 0.00 0.00 82 1017.0
20260904132503 82 221 0.0 2.0 0.00 0.00 0.00 83 1016.9
20260904132004 81 225 0.0 2.0 0.00 0.00 0.00 84 1017.0
20260904131503 81 198 0.0 2.0 0.00 0.00 0.00 85 1017.0
20260904131004 81 294 0.0 2.0 0.00 0.00 0.00 85 1016.9
20260904130505 80 210 0.0 2.0 0.00 0.00 0.00 86 1017.0
20260904130011 80 157 0.0 2.0 0.00 0.00 0.00 86 1017.0
20260904125505 80 192 0.0 1.0 0.00 0.00 0.00 87 1017.0
20260904125006 79 240 0.0 0.0 0.00 0.00 0.00 88 1017.0
20260904124514 79 240 0.0 0.0 0.00 0.00 0.00 89 1017.0
20260904124007 78 196 0.0 1.0 0.00 0.00 0.00 89 1017.0
20260904123509 78 227 0.0 1.0 0.00 0.00 0.00 90 1017.0
20260904123026 78 122 0.0 1.0 0.00 0.00 0.00 90 1017.0
20260904122515 77 287 0.0 0.0 0.00 0.00 0.00 91 1017.0
20260904122011 77 287 0.0 2.0 0.00 0.00 0.00 91 1017.0
20260904121504 77 197 0.0 2.0 0.00 0.00 0.00 92 1017.1
20260904121008 76 207 0.0 0.0 0.00 0.00 0.00 92 1017.0
20260904120503 76 207 0.0 0.0 0.00 0.00 0.00 92 1017.1
20260904120009 76 207 0.0 0.0 0.00 0.00 0.00 92 1017.0
20260904115504 76 207 0.0 1.0 0.00 0.00 0.00 93 1016.9
20260904115006 75 207 0.0 1.0 0.00 0.00 0.00 93 1017.0
20260904114518 75 199 0.0 0.0 0.00 0.00 0.00 93 1017.0
20260904114014 75 199 0.0 0.0 0.00 0.00 0.00 93 1017.0
20260904113508 75 199 0.0 0.0 0.00 0.00 0.00 93 1017.1
20260904113016 75 199 0.0 0.0 0.00 0.00 0.00 93 1017.1
20260904112510 75 199 0.0 0.0 0.00 0.00 0.00 93 1017.1
20260904112013 75 199 0.0 0.0 0.00 0.00 0.00 93 1017.0
20260904111526 75 199 0.0 0.0 0.00 0.00 0.00 94 1017.0
20260904111011 75 199 0.0 0.0 0.00 0.00 0.00 94 1016.9
20260904110515 74 199 0.0 0.0 0.00 0.00 0.00 94 1016.8
20260904110012 74 199 0.0 0.0 0.00 0.00 0.00 93 1016.7
20260904105506 74 199 0.0 0.0 0.00 0.00 0.00 93 1016.7
20260904105004 74 199 0.0 0.0 0.00 0.00 0.00 93 1016.8
20260904104512 74 199 0.0 0.0 0.00 0.00 0.00 93 1016.8
20260904104004 74 199 0.0 0.0 0.00 0.00 0.00 93 1016.7
20260904103505 75 199 0.0 0.0 0.00 0.00 0.00 93 1016.7
20260904103015 75 199 0.0 0.0 0.00 0.00 0.00 93 1016.8
20260904102507 75 199 0.0 0.0 0.00 0.00 0.00 93 1016.8
20260904102010 75 199 0.0 0.0 0.00 0.00 0.00 92 1016.8
20260904101526 75 199 0.0 0.0 0.00 0.00 0.00 92 1016.7
20260904101012 75 199 0.0 0.0 0.00 0.00 0.00 92 1016.7
20260904100512 75 199 0.0 0.0 0.00 0.00 0.00 92 1016.6
20260904100033 75 199 0.0 0.0 0.00 0.00 0.00 92 1016.6
20260904095514 75 199 0.0 0.0 0.00 0.00 0.00 92 1016.6
20260904095004 75 199 0.0 0.0 0.00 0.00 0.00 92 1016.7
20260904094508 75 199 0.0 0.0 0.00 0.00 0.00 91 1016.6
20260904094004 75 199 0.0 0.0 0.00 0.00 0.00 91 1016.6
20260904093505 75 199 0.0 0.0 0.00 0.00 0.00 91 1016.6
20260904093017 75 199 0.0 0.0 0.00 0.00 0.00 91 1016.5
20260904092509 75 199 0.0 0.0 0.00 0.00 0.00 91 1016.5
20260904092007 75 199 0.0 0.0 0.00 0.00 0.00 91 1016.4
20260904091527 75 199 0.0 0.0 0.00 0.00 0.00 91 1016.4
20260904091011 76 199 0.0 0.0 0.00 0.00 0.00 91 1016.4
20260904090511 76 199 0.0 0.0 0.00 0.00 0.00 91 1016.4
20260904090032 76 199 0.0 0.0 0.00 0.00 0.00 90 1016.3
20260904085513 76 199 0.0 0.0 0.00 0.00 0.00 90 1016.3
20260904085016 76 199 0.0 0.0 0.00 0.00 0.00 90 1016.2
20260904084534 76 199 0.0 0.0 0.00 0.00 0.00 90 1016.1
20260904084013 76 199 0.0 0.0 0.00 0.00 0.00 90 1016.0
20260904083505 76 199 0.0 0.0 0.00 0.00 0.00 89 1016.1
20260904083016 76 199 0.0 0.0 0.00 0.00 0.00 89 1016.0
20260904082508 76 199 0.0 0.0 0.00 0.00 0.00 89 1016.1
20260904082006 76 199 0.0 0.0 0.00 0.00 0.00 89 1016.0
20260904081518 76 199 0.0 0.0 0.00 0.00 0.00 89 1016.1
20260904081009 76 199 0.0 0.0 0.00 0.00 0.00 89 1016.1
20260904080516 76 199 0.0 0.0 0.00 0.00 0.00 88 1016.0
20260904080025 76 199 0.0 0.0 0.00 0.00 0.00 88 1016.0
20260904075513 76 199 0.0 0.0 0.00 0.00 0.00 88 1016.0
20260904075013 76 199 0.0 0.0 0.00 0.00 0.00 88 1016.0
20260904074535 76 199 0.0 0.0 0.00 0.00 0.00 88 1016.0
20260904074016 76 199 0.0 0.0 0.00 0.00 0.00 88 1016.0
20260904073518 76 199 0.0 0.0 0.00 0.00 0.00 88 1016.1
20260904073033 77 199 0.0 0.0 0.00 0.00 0.00 88 1016.1
20260904072505 76 199 0.0 0.0 0.00 0.00 0.00 88 1016.2
20260904072008 77 199 0.0 0.0 0.00 0.00 0.00 87 1016.2